Other Public Products
Issued by NWS Charleston, SC

Current Version | Previous Version | Text Only | Print | Product List | Glossary On
Versions: 1 2 3 4 5 6 7 8 9 10 11 12 13 14 15 16 17 18 19 20 21 22 23 24 25 26 27 28 29 30 31 32 33 34 35 36 37 38 39 40 41 42 43 44 45 46 47 48 49 50
000
FPUS82 KCHS 180512
OPUCHS

TEST...KCHS/KSAV Gateway Observations...TEST
National Weather Service Charleston SC
1200 AM EST SUN FEB 18 2018

NOTE: "fair" indicates few or no clouds below 12,000 feet with no
significant weather and/or obstructions to visibility.

SCZ050-WAZ558-NCZ071-TXZ119-213-PAZ071-DCZ001-FLZ074-172-MI076-
NYZ176-178-MAZ016-IL014-TNZ027-NJZ106-GAZ044-MD014-180600-

...Gateway Observations for Charleston International...

CITY           SKY/WX    TMP DP  RH WIND       PRES   REMARKS
Chas Airport   FAIR      62  59  90 SW9       30.11S
Seattle        PTCLDY    42  34  73 S23G36    29.57R
Charlotte      CLOUDY    46  45  96 N6        30.11S
Dallas DFW     CLOUDY    51  44  77 CALM      30.19R
Dallas Love    MOCLDY    51  46  83 E6        30.19S
Philladelphia  CLOUDY    33  32  96 NW3       30.02F
Wash National  CLOUDY    36  35  96 SW8       30.04F WCI  30
Baltimore      CLOUDY    32  32 100 CALM      30.02F FOG
Miami          FAIR      74  68  81 SE3       30.21F
Detroit        MOCLDY    29  27  92 SW8       30.04R WCI  21
Newark         LGT SNOW  33  32  96 N5        30.01F VSB 3/4 WCI  29
Laguardia      LGT SNOW  33  32  96 NE7       30.00F VSB 1   WCI  27
J F K          LGT SNOW  33  33 100 NE5       30.02F FOG     WCI  29
Boston Logan   LGT SNOW  32  31  96 NE5       30.06F VSB 3/4 WCI  27
Ft. Lauderdale FAIR      73  69  87 W6        30.20F
Chicago O`Hare FAIR      27  22  81 W7        30.11R WCI  19
Chicago Midway FAIR      29  24  82 NW8G18    30.12S WCI  21
Houston Bush   CLOUDY    60  54  80 NE9       30.14F
Houston Hobby  MOCLDY    63  58  83 NE7       30.13F
Nashville      CLOUDY    46  39  76 N13       30.26R
Atlanta        LGT RAIN  62  60  93 NW13      30.13R

$$

GAZ044-118-TXZ119-213-NCZ071-DCZ001-MDZ014-506-PAZ021-071-NJZ106-
NYZ176-178-MAZ106-OHZ011-021-055-MIZ076-KYZ091-ILZ014-INZ047-
MNZ060-ONZ431-180600-

...Gateway Observations for Savannah International...

CITY           SKY/WX    TMP DP  RH WIND       PRES   REMARKS
Savannah Arpt  FAIR      66  61  84 S8        30.13S
Atlanta        LGT RAIN  62  60  93 NW13      30.13R
Charlotte      CLOUDY    46  45  96 N6        30.11S
Dallas DFW     CLOUDY    51  44  77 CALM      30.19R
Houston Bush   CLOUDY    60  54  80 NE9       30.14F
Wash National  CLOUDY    36  35  96 SW8       30.04F WCI  30
Wash Dulles    FOG       33  33 100 CALM      30.03F VSB 1/4
Baltimore      CLOUDY    32  32 100 CALM      30.02F FOG
Philadelphia   CLOUDY    33  32  96 NW3       30.02F
Newark         LGT SNOW  33  32  96 N5        30.01F VSB 3/4 WCI  29
Laguardia      LGT SNOW  33  32  96 NE7       30.00F VSB 1   WCI  27
J F K          LGT SNOW  33  33 100 NE5       30.02F FOG     WCI  29
Boston         LGT SNOW  32  31  96 NE5       30.06F VSB 3/4 WCI  27
Pittsburg      FLURRIES  33  32  96 SW7       29.99R WCI  27
Akron          LGT SNOW  33  29  85 SW8       30.01R VSB 1   WCI  26
Cleveland      LGT SNOW  33  31  92 SW6       30.04R VSB 1   WCI  28
Cincinnati     CLOUDY    36  35  96 W12       30.14R WCI  28
Columbus       CLOUDY    34  34 100 W13       30.08R WCI  25
Detroit        MOCLDY    29  27  92 SW8       30.04R WCI  21
Chicago O`Hare FAIR      27  22  81 W7        30.11R WCI  19
Minneapolis    FAIR      23   7  50 W5        30.08R WCI  17
Indianapolis   MOCLDY    33  27  78 NW10      30.18R WCI  25
Toronto Canada CLOUDY    28  21  74 W10       29.95S WCI  19

$$




USA.gov is the U.S. government's official web portal to all federal, state and local government web resources and services.